Regional Weather Roundup
Issued by NWS

Home | Current Version | Previous Version | Text Only | Print | Product List | Glossary On
Versions: 1 2 3 4 5 6 7 8 9 10 11 12 13 14 15 16 17 18 19 20 21 22 23 24 25 26 27 28 29 30 31 32 33 34 35 36 37 38 39 40 41 42 43 44 45 46 47 48 49 50
000
ASUS43 KLMK 281202
RWRKY
KENTUCKY REGIONAL WEATHER ROUNDUP
NATIONAL WEATHER SERVICE LOUISVILLE KY
800 AM EDT TUE MAR 28 2017

NOTE "FAIR" INDICATES FEW OR NO CLOUDS BELOW 12,000 FEET
WITH NO SIGNIFICANT WEATHER AND/OR OBSTRUCTIONS TO VISIBILITY.

KYZ001>023-026-027-061>063-070>075-281300-
WESTERN AND SOUTH CENTRAL KENTUCKY

CITY           SKY/WX    TMP DP  RH WIND       PRES   REMARKS
PADUCAH        CLOUDY    57  51  80 NW5       29.98R
HENDERSON      CLOUDY    55  52  88 NW8       29.95R
OWENSBORO      CLOUDY    56  54  93 NW6       29.95R FOG
HOPKINSVILLE   CLOUDY    54  54 100 W7        29.97R
BOWLING GREEN  CLOUDY    56  53  90 SW5       29.95R
GLASGOW        NOT AVBL
$$

KYZ024-025-028>034-038-045-046-053-281300-
NORTH CENTRAL KENTUCKY

CITY           SKY/WX    TMP DP  RH WIND       PRES   REMARKS
LOUISVILLE/SDF DRIZZLE   57  54  89 W7        29.93R FOG
LOUISVILLE/LOU CLOUDY    57  54  89 W5        29.93R FOG
FORT KNOX      CLOUDY    55  55 100 NW6       29.91S
$$

KYZ035>037-039>044-047>052-055>060-089>105-281300-
NORTHEAST KENTUCKY

CITY           SKY/WX    TMP DP  RH WIND       PRES   REMARKS
LEXINGTON      CLOUDY    56  53  90 W7        29.92R FOG
COVINGTON      CLOUDY    56  55  97 W9        29.90R FOG
FRANKFORT      CLOUDY    57  53  86 W7        29.91R FOG
$$

KYZ054-064>069-076>088-106>120-281300-
SOUTHEAST KENTUCKY

CITY           SKY/WX    TMP DP  RH WIND       PRES   REMARKS
JACKSON        CLOUDY    55  54  96 CALM      29.92R
LONDON         CLOUDY    56  53  90 W5        29.93R
SOMERSET       NOT AVBL
MIDDLESBORO    CLOUDY    55  55 100 CALM      29.94R
MONTICELLO     CLOUDY    57  55  93 W13       29.96R
$$





USA.gov is the U.S. government's official web portal to all federal, state and local government web resources and services.